[[{"header":{"parameterUnit":"m.s-1","parameterCategory":1,"la1":30.2991,"la2":30.254,"lo1":-89.0895,"lo2":-89.0444,"dy":0.0017,"dx":0.0017,"nx":28,"ny":28,"refTime":"2025-03-20T21:00:00:Z","depth":0,"parameterNumber":2,"parameterNumberName":"U-component_of_WINDS"},"data":[0,0,0,0,0,0,0,0,0,0,0,0,0,0,0,0,0,0,0,0,0,0,0,0,0,0,0,0,0,0,0,0,0,0,0,0,0,0,0,0,0,0,0,0,0,0,0,0,0,0,0,0,0,0,0,0,0,0,4.6413,4.6415,0,4.6613,4.6616,4.6618,4.6586,4.6583,4.658,4.6576,4.6783,4.6792,4.68,0,0,0,0,0,0,0,0,0,0,0,0,0,4.6002,4.601,4.6413,4.6416,4.6418,4.6613,4.6616,4.6619,4.6587,4.6583,4.6579,4.6575,4.678,4.6791,4.6801,0,0,0,0,0,0,0,0,0,0,0,0,0,4.6189,4.6012,4.6413,4.6426,4.6429,4.6613,4.6616,4.6619,4.6588,4.6583,4.6578,4.6573,4.6777,4.679,4.6802,4.6986,0,0,4.6842,4.6848,0,0,0,0,0,0,0,0,4.6179,4.6204,4.6421,4.6425,4.6429,4.657,4.6547,4.6742,4.6589,4.6528,4.6576,4.657,4.6716,4.6734,4.6783,4.6996,4.7005,4.6844,4.6851,4.6857,4.6861,0,0,0,0,0,0,0,4.6166,4.6196,4.6492,4.6425,4.6429,4.6421,4.6442,4.6584,4.6649,4.6533,4.6531,4.6555,4.6718,4.6771,4.6788,4.7008,4.6843,4.6855,4.6863,4.6868,4.7375,4.738,0,0,0,0,0,0,4.6149,4.6185,4.6486,4.6498,4.6289,4.6433,4.6456,4.653,4.6647,4.666,4.6559,4.6553,4.6751,4.6772,4.6795,4.7013,4.6857,4.6869,4.6877,4.7369,4.7376,4.7382,0,0,0,0,0,0,4.614,4.6176,4.6478,4.6341,4.6379,4.6445,4.6528,4.6536,4.6589,4.6667,4.6678,4.6601,4.6748,4.6776,4.6937,4.702,4.6875,4.6887,4.7363,4.7372,4.7379,4.7454,0,0,0,0,0,0,4.6129,4.6173,4.6244,4.6343,4.6386,4.6618,4.6534,4.6544,4.6612,4.6605,4.6709,4.6722,4.6746,4.6918,4.695,4.7035,4.6897,4.7356,4.7367,4.7377,4.7444,4.7464,4.748,0,0,0,0,0,4.6114,4.6259,4.6248,4.6285,4.6477,4.6623,4.6647,4.6672,4.6619,4.669,4.6739,4.6718,4.7006,4.6935,4.6971,4.7061,4.735,4.7364,4.7376,4.7436,4.746,4.748,0,0,0,0,0,0,4.617,4.6272,4.6262,4.6443,4.6524,4.6617,4.6708,4.6697,4.6796,4.6785,4.6812,4.6835,4.6997,4.7046,4.6964,4.7242,4.7171,4.7191,4.7204,4.7227,4.7245,4.7229,4.6908,0,0,0,0,0,4.6203,4.6314,4.6397,4.6549,4.659,4.6642,4.6707,4.6717,4.6803,4.6838,4.6899,4.6983,4.7091,4.7162,4.7267,4.7451,4.7471,4.7531,4.7549,4.7563,4.758,4.7676,4.7702,4.7424,4.7424,4.7424,0,0,4.6274,4.6343,4.6412,4.6562,4.6626,4.6738,4.6671,4.6794,4.6876,4.6857,4.701,4.7058,4.7153,4.7325,4.7404,4.737,4.7661,4.758,4.7591,4.76,4.7692,4.7718,4.7741,4.7433,4.7431,4.743,0,0,4.6458,4.6523,4.6654,4.6719,4.6816,4.6849,4.688,4.6975,4.7005,4.716,4.7145,4.7244,4.7432,4.7499,4.7557,4.7762,4.7745,4.7796,4.7889,4.7983,4.8004,4.8024,4.8092,4.8117,4.7813,4.7813,4.7813,0,4.6533,4.6701,4.6723,4.6846,4.6911,4.6896,4.7027,4.7089,4.7216,4.7261,4.7221,4.7453,4.7517,4.7701,4.775,4.78,4.7834,4.7783,4.7999,4.8019,4.8038,4.8103,4.813,4.7818,4.7817,4.7817,4.7816,0,4.6786,4.6903,4.6997,4.7117,4.7193,4.732,4.7359,4.7433,4.7437,4.7473,4.7629,4.7704,4.7821,4.7866,4.7873,4.8051,4.8026,4.7993,4.7922,4.8069,4.8131,4.8156,4.7825,4.7823,4.7822,4.7821,0,0,4.7013,4.714,4.7174,4.7226,4.733,4.742,4.7545,4.7658,4.7719,4.7807,4.7909,4.8066,4.8035,4.8101,4.8115,4.8197,4.8348,4.8153,4.8156,4.8183,4.8543,4.8565,4.8594,4.8338,4.8343,4.8347,4.8534,0,4.7204,4.7423,4.7444,4.7639,4.7745,4.773,4.7838,4.7913,4.795,4.8044,4.8085,4.8194,4.8147,4.8185,4.8266,4.8312,4.842,4.83,4.8432,4.8436,4.8405,4.8627,4.8652,4.8824,4.8559,4.8563,4.8566,0,4.7457,4.7548,4.7753,4.7837,4.7882,4.7979,4.8081,4.8173,4.8256,4.8276,4.8348,4.835,4.8475,4.84,4.8572,4.849,4.8545,4.8575,4.8583,4.8594,4.8508,4.864,4.888,4.8905,4.8605,4.8602,4.8599,0,4.7595,4.777,4.7914,4.796,4.8063,4.813,4.8177,4.8255,4.832,4.841,4.8451,4.8556,4.8612,4.8692,4.872,4.8664,4.8889,4.8818,4.8907,4.8907,4.8954,4.895,4.9202,4.8996,4.8995,4.8995,4.8994,0,4.7805,4.793,4.7977,4.8065,4.8203,4.8226,4.8363,4.8406,4.8474,4.8569,4.8565,4.8654,4.8687,4.8781,4.8805,4.8941,4.8968,4.8986,4.899,4.8985,4.8981,4.9019,4.9006,4.9002,4.9,4.8999,4.8998,0,4.7983,4.802,4.8175,4.8259,4.8283,4.8381,4.8452,4.8536,4.857,4.869,4.8719,4.8773,4.8883,4.8919,4.9054,4.9069,4.9226,4.9222,4.9198,4.9197,4.9283,4.9273,4.9566,4.9603,4.9375,4.9377,4.9379,0,4.8112,4.8207,4.83,4.8362,4.8411,4.8512,4.8577,4.8602,4.867,4.8769,4.8841,4.8949,4.9037,4.9213,4.9264,4.9365,4.9361,4.9456,4.9376,4.9366,4.9357,4.935,4.9357,4.9471,4.9473,4.9475,4.9477,0,4.8337,4.8349,4.8443,4.8541,4.8618,4.8698,4.8775,4.8826,4.8862,4.8938,4.905,4.9118,4.9252,4.9359,4.9461,4.9508,4.9497,4.9501,4.9527,4.9521,4.95,4.9508,4.9234,4.9494,4.9492,4.9491,4.949,4.949,4.8492,4.8574,4.865,4.8753,4.8813,4.8883,4.8965,4.9007,4.91,4.921,4.922,4.9339,4.9416,4.9552,4.9603,4.9695,4.9668,4.9706,4.9715,4.9723,4.9728,4.9488,4.9715,4.9715,4.9714,4.9714,4.9713,0,4.8712,4.876,4.8854,4.896,4.904,4.9022,4.9105,4.9173,4.9277,4.9349,4.9434,4.956,4.9662,4.9719,4.9821,4.9883,4.9881,4.9909,4.9903,4.9913,4.9749,4.9714,4.9909,4.9909,4.9909,4.9909,4.9909,4.9909,4.8836,4.8972,4.8993,4.9156,4.9203,4.9318,4.9366,4.943,4.9487,4.9627,4.9711,4.9747,4.9812,4.9918,5.0009,5.0024,5.0059,5.009,5.01,4.9945,4.9925,4.9906,4.9874,5.0098,5.0099,5.0257,5.0258,5.0259]},{"header":{"parameterUnit":"m.s-1","parameterCategory":1,"la1":30.2991,"la2":30.254,"lo1":-89.0895,"lo2":-89.0444,"dy":0.0017,"dx":0.0017,"nx":28,"ny":28,"refTime":"2025-03-20T21:00:00:Z","depth":0,"parameterNumber":3,"parameterNumberName":"V-component_of_WINDS"},"data":[0,0,0,0,0,0,0,0,0,0,0,0,0,0,0,0,0,0,0,0,0,0,0,0,0,0,0,0,0,0,0,0,0,0,0,0,0,0,0,0,0,0,0,0,0,0,0,0,0,0,0,0,0,0,0,0,0,0,1.1161,1.1162,0,1.1227,1.1228,1.1228,1.1206,1.1204,1.1203,1.1202,1.1269,1.1272,1.1275,0,0,0,0,0,0,0,0,0,0,0,0,0,1.1013,1.1016,1.1161,1.1162,1.1163,1.1227,1.1228,1.1229,1.1206,1.1204,1.1203,1.1201,1.1268,1.1271,1.1275,0,0,0,0,0,0,0,0,0,0,0,0,0,1.1078,1.1017,1.1161,1.1159,1.116,1.1227,1.1228,1.1229,1.1206,1.1204,1.1202,1.12,1.1266,1.1271,1.1276,1.1348,0,0,1.129,1.1292,0,0,0,0,0,0,0,0,1.1075,1.1084,1.1159,1.1159,1.116,1.1206,1.12,1.1269,1.1207,1.1189,1.1201,1.1199,1.1249,1.1255,1.1273,1.1351,1.1354,1.129,1.1293,1.1295,1.1297,0,0,0,0,0,0,0,1.107,1.1081,1.1187,1.116,1.1161,1.1154,1.1161,1.1213,1.123,1.119,1.1189,1.1197,1.1249,1.1268,1.1274,1.1355,1.129,1.1294,1.1297,1.1299,1.1493,1.1495,0,0,0,0,0,0,1.1065,1.1077,1.1185,1.1189,1.1111,1.1159,1.1166,1.1193,1.123,1.1233,1.1199,1.1195,1.1261,1.1268,1.1276,1.1361,1.1295,1.13,1.1302,1.1491,1.1493,1.1496,0,0,0,0,0,0,1.1062,1.1075,1.1182,1.1133,1.1146,1.1164,1.1194,1.1196,1.1214,1.1236,1.1239,1.1215,1.126,1.127,1.133,1.1363,1.1302,1.1306,1.1488,1.1491,1.1495,1.1534,0,0,0,0,0,0,1.1058,1.1074,1.1103,1.1134,1.1149,1.1236,1.1196,1.1199,1.1223,1.1219,1.1252,1.1255,1.1259,1.1323,1.1334,1.1369,1.131,1.1485,1.1489,1.1493,1.1529,1.1538,1.1545,0,0,0,0,0,1.1053,1.1112,1.1105,1.1118,1.1185,1.1238,1.1246,1.1249,1.1226,1.1254,1.1267,1.1254,1.1358,1.1329,1.1342,1.1378,1.1483,1.1488,1.1493,1.1526,1.1536,1.1545,0,0,0,0,0,0,1.1086,1.1116,1.1108,1.1179,1.1206,1.1234,1.127,1.1261,1.1295,1.129,1.1292,1.13,1.1361,1.1376,1.1343,1.1449,1.1417,1.1425,1.1437,1.1447,1.1455,1.145,1.1314,0,0,0,0,0,1.1101,1.1142,1.1166,1.1226,1.124,1.1252,1.1276,1.1275,1.1303,1.1314,1.1332,1.136,1.1398,1.1423,1.146,1.1531,1.1537,1.1562,1.157,1.1577,1.1583,1.1619,1.163,1.1513,1.1513,1.1513,0,0,1.1133,1.1155,1.1181,1.1233,1.1254,1.1295,1.1262,1.1308,1.1338,1.1321,1.1379,1.1393,1.1423,1.1488,1.1517,1.1502,1.1617,1.1583,1.1588,1.1592,1.1626,1.1637,1.1647,1.1517,1.1516,1.1515,0,0,1.1213,1.1234,1.1285,1.1306,1.1338,1.1345,1.1357,1.1386,1.1394,1.1452,1.1439,1.1474,1.1541,1.1563,1.1582,1.1666,1.1655,1.1678,1.172,1.1755,1.1764,1.1772,1.18,1.1811,1.1685,1.1685,1.1685,0,1.1249,1.1311,1.1313,1.1359,1.1381,1.1367,1.1417,1.1437,1.1479,1.1495,1.1477,1.1558,1.1578,1.1646,1.1666,1.1683,1.1696,1.1675,1.1763,1.1771,1.1778,1.1805,1.1816,1.1687,1.1687,1.1687,1.1687,0,1.1353,1.1396,1.1433,1.1473,1.15,1.1548,1.1555,1.1582,1.1578,1.1587,1.1644,1.1666,1.1706,1.1722,1.172,1.179,1.1779,1.1762,1.173,1.1792,1.1817,1.1828,1.1691,1.169,1.1689,1.1689,0,0,1.1457,1.1495,1.1508,1.1525,1.1557,1.159,1.1636,1.1674,1.1696,1.1725,1.1763,1.1818,1.1801,1.1823,1.1823,1.1854,1.1916,1.1832,1.1833,1.1846,1.1991,1.2003,1.2015,1.1908,1.191,1.1912,1.1988,0,1.1538,1.162,1.1621,1.1695,1.1734,1.1719,1.1759,1.1782,1.1791,1.1824,1.1834,1.1872,1.1848,1.1861,1.1891,1.1902,1.1945,1.1897,1.1942,1.1944,1.1934,1.2029,1.2042,1.2113,1.1998,1.2,1.2001,0,1.1644,1.1675,1.1753,1.1777,1.1793,1.1829,1.1863,1.1895,1.192,1.1924,1.1947,1.1941,1.1986,1.1952,1.2014,1.1981,1.1999,1.2007,1.201,1.2014,1.1976,1.2034,1.2136,1.2147,1.2017,1.2016,1.2015,0,1.171,1.1771,1.1825,1.184,1.1869,1.1895,1.1908,1.1931,1.1953,1.1982,1.1996,1.203,1.2048,1.2074,1.2077,1.2052,1.2138,1.2105,1.2141,1.2141,1.216,1.2159,1.2265,1.2173,1.2173,1.2173,1.2173,0,1.18,1.1848,1.1854,1.1888,1.194,1.194,1.1991,1.2002,1.2022,1.2056,1.2046,1.2078,1.208,1.2112,1.2114,1.2163,1.2172,1.2175,1.2175,1.2176,1.2175,1.2188,1.2182,1.2176,1.2175,1.2175,1.2174,0,1.1883,1.1889,1.1946,1.1969,1.1975,1.2013,1.2032,1.2062,1.2069,1.2112,1.2122,1.2132,1.2169,1.2174,1.2218,1.2219,1.2278,1.2273,1.2269,1.2268,1.2304,1.23,1.2422,1.2437,1.2336,1.2337,1.2338,0,1.194,1.1976,1.2001,1.2023,1.2037,1.2073,1.2095,1.2095,1.2118,1.2147,1.2174,1.221,1.2238,1.2298,1.2309,1.2341,1.2337,1.2377,1.2342,1.234,1.2335,1.2333,1.2335,1.2384,1.2385,1.2386,1.2387,0,1.2039,1.2039,1.2071,1.2104,1.2129,1.2155,1.2179,1.2197,1.22,1.2226,1.2263,1.2285,1.2329,1.2364,1.2395,1.2408,1.2397,1.2397,1.2407,1.2408,1.2403,1.2405,1.2287,1.2395,1.2394,1.2393,1.2393,1.2393,1.2109,1.214,1.2162,1.2197,1.2214,1.2236,1.2265,1.2275,1.2306,1.2341,1.2339,1.2379,1.2401,1.2442,1.2456,1.2487,1.2474,1.2489,1.2492,1.2495,1.2498,1.2399,1.2493,1.2493,1.2493,1.2493,1.2492,0,1.2207,1.2219,1.2251,1.2284,1.2311,1.2298,1.2323,1.2346,1.2382,1.2403,1.2431,1.2472,1.2505,1.2518,1.255,1.2572,1.2567,1.258,1.2578,1.258,1.2509,1.2497,1.2583,1.2583,1.2583,1.2583,1.2583,1.2583,1.226,1.231,1.2313,1.2371,1.2383,1.2422,1.2437,1.2457,1.2473,1.2519,1.2546,1.2554,1.2571,1.2603,1.2632,1.2635,1.2647,1.2661,1.2662,1.2595,1.2586,1.2577,1.2565,1.2664,1.2664,1.273,1.2731,1.2731]}]]